Date String (YYYY-MM-DD hh:mm:ss) UTC,Instrument flags,Ambient pressure (hPa),Sample flow (lpm),Bypass flow (lpm),Sample temperature (°C),Ambient temperature (°C),ASC tube jacket temperature (°C),LED temperature (°C),Box temperature (°C),Sample RH (%),Span deviation,Mass concentration (μg/m³),Mass concentration (μg/m³),Mass concentration (μg/m³)
DateTimeUTC,F1_M11,P_M11,Q1_M11,Q2_M11,T1_M11,T2_M11,T3_M11,T4_M11,T5_M11,U1_M11,ZSPAN_M11,X2_M11,X0_M11,X1_M11
2023-02-13 10:00:00,,0821.9,5.01,0.00,22.1,21.3,00.0,30.9,24.0,08.0,0000.0,0001.53,0003.57,0001.24
2023-02-13 10:01:00,,0821.9,4.99,0.00,22.2,22.6,00.0,30.9,24.3,08.0,0000.0,0001.53,0004.21,0001.21
2023-02-13 10:02:00,,0822.3,4.99,0.00,22.4,23.1,00.0,31.0,24.5,07.9,0000.0,0001.52,0004.90,0001.19
2023-02-13 10:03:00,,0821.9,4.98,0.00,22.4,22.7,00.0,31.0,24.4,07.9,0000.0,0001.49,0004.94,0001.16
2023-02-13 10:04:00,,0821.9,5.08,0.00,22.4,22.3,00.0,31.1,24.4,07.9,0000.0,0001.48,0004.95,0001.15
2023-02-13 10:05:00,,0821.8,5.01,0.00,22.4,21.9,00.0,31.1,24.3,07.9,0000.0,0001.48,0004.96,0001.12
2023-02-13 10:06:00,,0821.8,5.02,0.00,22.4,21.6,00.0,31.1,24.3,07.8,0000.0,0001.50,0004.19,0001.11
2023-02-13 10:07:00,,0821.8,5.00,0.00,22.4,21.4,00.0,31.1,24.2,07.8,0000.0,0001.49,0004.25,0001.10
2023-02-13 10:08:00,,0821.8,4.98,0.00,22.4,21.2,00.0,31.2,24.2,07.8,0000.0,0001.48,0004.28,0001.10
2023-02-13 10:09:00,,0821.8,4.99,0.00,22.4,21.0,00.0,31.2,24.2,07.8,0000.0,0001.49,0004.54,0001.09
2023-02-13 10:10:00,,0821.7,5.01,0.00,22.4,20.9,00.0,31.2,24.1,07.8,0000.0,0001.54,0005.39,0001.09
2023-02-13 10:11:00,,0821.8,5.00,0.00,22.4,20.8,00.0,31.2,24.1,07.9,0000.0,0001.52,0005.16,0001.09
2023-02-13 10:12:00,,0821.8,5.02,0.00,22.4,20.7,00.0,31.2,24.1,07.9,0000.0,0001.53,0004.49,0001.09
2023-02-13 10:13:00,,0821.8,5.01,0.00,22.3,20.6,00.0,31.2,24.1,07.8,0000.0,0001.49,0003.59,0001.09
2023-02-13 10:14:00,,0821.8,5.00,0.00,22.3,20.6,00.0,31.2,24.1,07.8,0000.0,0001.51,0003.51,0001.10
2023-02-13 10:15:00,,0821.8,5.01,0.00,22.3,20.5,00.0,31.2,24.0,07.9,0000.0,0001.49,0003.45,0001.10
2023-02-13 10:16:00,,0821.7,5.00,0.00,22.3,20.5,00.0,31.1,24.0,07.9,0000.0,0001.49,0003.42,0001.12
2023-02-13 10:17:00,,0821.7,5.00,0.00,22.3,20.4,00.0,31.1,24.0,07.9,0000.0,0001.51,0003.35,0001.15
2023-02-13 10:18:00,,0821.6,4.99,0.00,22.2,20.5,00.0,31.1,24.0,08.0,0000.0,0001.50,0003.23,0001.16
2023-02-13 10:19:00,,0821.7,4.99,0.00,22.2,20.5,00.0,31.1,23.9,08.0,0000.0,0001.52,0003.25,0001.17
2023-02-13 10:20:00,,0821.6,5.00,0.00,22.2,20.4,00.0,31.1,23.9,08.0,0000.0,0001.50,0003.00,0001.17
2023-02-13 10:21:00,,0821.6,4.99,0.00,22.2,20.5,00.0,31.1,24.0,08.0,0000.0,0001.48,0002.20,0001.19
2023-02-13 10:22:00,,0821.6,5.02,0.00,22.3,21.6,00.0,31.1,24.2,08.0,0000.0,0001.51,0002.40,0001.21
2023-02-13 10:23:00,,0821.6,5.08,0.00,22.4,22.7,00.0,31.0,24.4,08.0,0000.0,0001.53,0002.52,0001.25
2023-02-13 10:24:00,,0821.6,5.00,0.00,22.5,23.1,00.0,31.1,24.6,08.2,0000.0,0001.68,0002.83,0001.33
2023-02-13 10:25:00,,0821.5,5.03,0.00,22.6,22.6,00.0,31.2,24.5,08.1,0000.0,0001.83,0003.11,0001.41
2023-02-13 10:26:00,,0821.5,5.02,0.00,22.6,22.2,00.0,31.2,24.5,08.1,0000.0,0001.91,0003.23,0001.48
2023-02-13 10:27:00,,0821.5,5.01,0.00,22.6,21.9,00.0,31.2,24.4,08.4,0000.0,0002.03,0004.58,0001.57
2023-02-13 10:28:00,,0821.5,4.97,0.00,22.6,21.7,00.0,31.2,24.4,08.3,0000.0,0002.07,0005.10,0001.63
2023-02-13 10:29:00,,0821.5,4.99,0.00,22.5,21.5,00.0,31.3,24.3,08.2,0000.0,0002.16,0005.24,0001.70
2023-02-13 10:30:00,,0821.5,5.03,0.00,22.5,21.4,00.0,31.3,24.3,08.2,0000.0,0002.22,0005.34,0001.76
2023-02-13 10:31:00,,0821.6,5.00,0.00,22.5,21.2,00.0,31.3,24.3,08.7,0000.0,0002.32,0005.45,0001.86
2023-02-13 10:32:00,,0821.4,5.01,0.00,22.5,21.2,00.0,31.3,24.3,08.6,0000.0,0002.50,0006.60,0001.97
2023-02-13 10:33:00,,0821.4,4.98,0.00,22.5,21.1,00.0,31.3,24.3,08.2,0000.0,0002.56,0006.84,0002.00
2023-02-13 10:34:00,,0821.4,4.99,0.00,22.5,21.0,00.0,31.3,24.3,08.2,0000.0,0002.58,0006.72,0002.01
2023-02-13 10:35:00,,0821.4,4.98,0.00,22.5,20.9,00.0,31.3,24.2,08.2,0000.0,0002.53,0006.59,0001.98
2023-02-13 10:36:00,,0821.4,5.00,0.00,22.4,20.9,00.0,31.3,24.2,08.2,0000.0,0002.40,0006.34,0001.93
2023-02-13 10:37:00,,0821.4,4.99,0.00,22.4,20.8,00.0,31.3,24.2,08.2,0000.0,0002.37,0006.29,0001.91
2023-02-13 10:38:00,,0821.4,5.00,0.00,22.4,20.7,00.0,31.3,24.1,08.3,0000.0,0002.31,0005.21,0001.86
2023-02-13 10:39:00,,0821.4,5.03,0.00,22.4,20.6,00.0,31.3,24.1,08.5,0000.0,0002.34,0004.55,0001.84
2023-02-13 10:40:00,,0821.4,5.01,0.00,22.4,20.5,00.0,31.3,24.0,09.0,0000.0,0002.46,0004.70,0001.94
2023-02-13 10:41:00,,0821.4,5.00,0.00,22.3,20.3,00.0,31.2,24.0,08.8,0000.0,0002.54,0004.93,0001.99
2023-02-13 10:42:00,,0821.4,5.01,0.00,22.2,20.2,00.0,31.2,23.9,09.1,0000.0,0002.56,0005.00,0002.03
2023-02-13 10:43:00,,0821.4,5.01,0.00,22.3,20.9,00.0,31.2,24.0,09.5,0000.0,0002.56,0004.01,0002.10
2023-02-13 10:44:00,,0821.4,5.01,0.00,22.4,22.1,00.0,31.1,24.3,10.6,0000.0,0002.83,0004.13,0002.37
2023-02-13 10:45:00,,0821.4,4.97,0.00,22.5,22.9,00.0,31.2,24.5,11.2,0000.0,0003.17,0004.77,0002.70
2023-02-13 10:46:00,,0821.4,4.95,0.00,22.5,22.5,00.0,31.2,24.5,10.8,0000.0,0003.38,0005.40,0003.03
2023-02-13 10:47:00,,0821.3,5.00,0.00,22.5,22.0,00.0,31.3,24.4,10.5,0000.0,0003.54,0005.96,0003.21
2023-02-13 10:48:00,,0821.3,4.98,0.00,22.5,21.6,00.0,31.3,24.3,10.0,0000.0,0003.70,0006.66,0003.35
2023-02-13 10:49:00,,0821.2,4.98,0.00,22.5,21.3,00.0,31.3,24.2,09.5,0000.0,0003.80,0006.92,0003.44
2023-02-13 10:50:00,,0821.2,5.01,0.00,22.5,21.1,00.0,31.3,24.2,09.5,0000.0,0003.88,0007.10,0003.52
2023-02-13 10:51:00,,0821.2,5.00,0.00,22.4,20.9,00.0,31.3,24.2,09.5,0000.0,0003.89,0007.11,0003.56
2023-02-13 10:52:00,,0821.2,5.00,0.00,22.4,20.8,00.0,31.3,24.2,09.8,0000.0,0003.97,0007.28,0003.62
2023-02-13 10:53:00,,0821.2,5.00,0.00,22.4,20.7,00.0,31.3,24.2,10.0,0000.0,0004.06,0007.81,0003.71
2023-02-13 10:54:00,,0821.2,4.99,0.00,22.4,20.6,00.0,31.3,24.1,10.3,0000.0,0004.17,0008.03,0003.78
2023-02-13 10:55:00,,0821.1,5.01,0.00,22.4,20.5,00.0,31.3,24.1,10.8,0000.0,0004.23,0008.14,0003.84
2023-02-13 10:56:00,,0821.1,5.00,0.00,22.3,20.4,00.0,31.3,24.0,10.7,0000.0,0004.17,0008.09,0003.81
2023-02-13 10:57:00,,0821.1,4.99,0.00,22.3,20.4,00.0,31.2,24.0,10.3,0000.0,0004.17,0008.62,0003.79
2023-02-13 10:58:00,,0821.1,5.01,0.00,22.3,20.3,00.0,31.2,24.0,09.4,0000.0,0004.15,0008.67,0003.76
2023-02-13 10:59:00,,0821.1,5.02,0.00,22.2,20.3,00.0,31.2,24.0,09.2,0000.0,0004.08,0008.36,0003.70
